{"data":{"norad_id":60082,"epoch":"2026-05-25T04:50:19.225824Z","epoch_age_seconds":57561,"freshness":"FRESH","line1":"1 60082U 24114D   26145.20161141  .00000567  00000+0  89262-4 0  9990","line2":"2 60082  97.9887 165.5877 0000197 123.9578 236.1651 14.76221926103735","mean_motion":14.76221926,"eccentricity":1.97e-5,"inclination_deg":97.9887,"raan_deg":165.5877,"arg_perigee_deg":123.9578,"mean_anomaly_deg":236.1651,"bstar":8.9262e-5,"rev_number":10373,"period_min":97.54630890098301,"perigee_km":641.13682274218,"apogee_km":641.41338757913,"semimajor_km":7019.4121051607,"source":"CELESTRAK","updated_at":"2026-05-25T13:38:01.826677Z"}}